[[{"header":{"parameterUnit":"m.s-1","parameterCategory":1,"la1":30.2991,"la2":30.254,"lo1":-89.0895,"lo2":-89.0444,"dy":0.0017,"dx":0.0017,"nx":28,"ny":28,"refTime":"2024-02-25T09:00:00:Z","depth":0,"parameterNumber":2,"parameterNumberName":"U-component_of_WINDS"},"data":[0,0,0,0,0,0,0,0,0,0,0,0,0,0,0,0,0,0,0,0,0,0,0,0,0,0,0,0,0,0,0,0,0,0,0,0,0,0,0,0,0,0,0,0,0,0,0,0,0,0,0,0,0,0,0,0,0,0,-0.4022,-0.4022,0,-0.4026,-0.4026,-0.4026,-0.4038,-0.4038,-0.4038,-0.4039,-0.4043,-0.4043,-0.4043,0,0,0,0,0,0,0,0,0,0,0,0,0,-0.4024,-0.4024,-0.4022,-0.4022,-0.4022,-0.4026,-0.4026,-0.4026,-0.4038,-0.4038,-0.4038,-0.4039,-0.4043,-0.4043,-0.4043,0,0,0,0,0,0,0,0,0,0,0,0,0,-0.4025,-0.4024,-0.4022,-0.4028,-0.4029,-0.4026,-0.4026,-0.4026,-0.4038,-0.4038,-0.4039,-0.4039,-0.4043,-0.4043,-0.4043,-0.4034,0,0,-0.4042,-0.4042,0,0,0,0,0,0,0,0,-0.4025,-0.4025,-0.4027,-0.4028,-0.4029,-0.4032,-0.4029,-0.4029,-0.4038,-0.4034,-0.4039,-0.4039,-0.4039,-0.4039,-0.4039,-0.4035,-0.4035,-0.4042,-0.4042,-0.4042,-0.4042,0,0,0,0,0,0,0,-0.4025,-0.4025,-0.4024,-0.4027,-0.4028,-0.4031,-0.4032,-0.4029,-0.4035,-0.4035,-0.4036,-0.4036,-0.4039,-0.4039,-0.4039,-0.4035,-0.4042,-0.4042,-0.4042,-0.4042,-0.4024,-0.4024,0,0,0,0,0,0,-0.4024,-0.4025,-0.4024,-0.4024,-0.4028,-0.4031,-0.4031,-0.403,-0.4035,-0.4036,-0.4036,-0.4036,-0.4039,-0.404,-0.404,-0.403,-0.4042,-0.4042,-0.4042,-0.4025,-0.4024,-0.4024,0,0,0,0,0,0,-0.4024,-0.4024,-0.4023,-0.4025,-0.4025,-0.403,-0.4029,-0.403,-0.403,-0.4035,-0.4036,-0.4034,-0.404,-0.404,-0.4036,-0.4031,-0.4042,-0.4042,-0.4025,-0.4025,-0.4024,-0.4012,0,0,0,0,0,0,-0.4024,-0.4024,-0.4021,-0.4025,-0.4025,-0.4019,-0.4029,-0.403,-0.403,-0.4031,-0.4035,-0.4035,-0.404,-0.4036,-0.4036,-0.4031,-0.4042,-0.4026,-0.4025,-0.4024,-0.4012,-0.4011,-0.4009,0,0,0,0,0,-0.4024,-0.4017,-0.402,-0.402,-0.4021,-0.4019,-0.4019,-0.4024,-0.4029,-0.4026,-0.403,-0.4035,-0.4031,-0.4035,-0.4035,-0.403,-0.4026,-0.4025,-0.4024,-0.4013,-0.4011,-0.4009,0,0,0,0,0,0,-0.4012,-0.4017,-0.4021,-0.4015,-0.4016,-0.4021,-0.4017,-0.4022,-0.4022,-0.4023,-0.403,-0.4031,-0.4026,-0.4028,-0.4032,-0.4023,-0.403,-0.4029,-0.4021,-0.4019,-0.4018,-0.4017,-0.4041,0,0,0,0,0,-0.4008,-0.4006,-0.4011,-0.4005,-0.4006,-0.4011,-0.4011,-0.4015,-0.4017,-0.4017,-0.402,-0.4022,-0.4021,-0.402,-0.402,-0.4013,-0.4014,-0.4009,-0.4008,-0.4006,-0.4005,-0.4002,-0.4,-0.4021,-0.4021,-0.4021,0,0,-0.4001,-0.4004,-0.4002,-0.4003,-0.4004,-0.4002,-0.4012,-0.4009,-0.4008,-0.4017,-0.4013,-0.4016,-0.4018,-0.4012,-0.401,-0.4014,-0.4,-0.4005,-0.4004,-0.4004,-0.4001,-0.3999,-0.3998,-0.4021,-0.4021,-0.4021,0,0,-0.3987,-0.3989,-0.3984,-0.3985,-0.3988,-0.3992,-0.3991,-0.3994,-0.3996,-0.3993,-0.4,-0.3999,-0.3997,-0.3998,-0.3999,-0.3986,-0.3991,-0.3986,-0.3977,-0.3974,-0.3972,-0.3971,-0.3966,-0.3965,-0.3985,-0.3985,-0.3985,0,-0.3977,-0.3974,-0.3981,-0.3978,-0.3978,-0.3987,-0.3982,-0.3983,-0.3985,-0.3985,-0.399,-0.3988,-0.399,-0.3986,-0.3982,-0.3983,-0.3982,-0.3985,-0.3972,-0.3971,-0.3969,-0.3965,-0.3964,-0.3984,-0.3984,-0.3984,-0.3984,0,-0.3963,-0.3961,-0.3957,-0.3959,-0.3959,-0.3955,-0.3961,-0.396,-0.3964,-0.3968,-0.3964,-0.3968,-0.3968,-0.3967,-0.3971,-0.3963,-0.3965,-0.3971,-0.3978,-0.3967,-0.3963,-0.3961,-0.3983,-0.3983,-0.3984,-0.3984,0,0,-0.394,-0.3946,-0.3945,-0.3946,-0.395,-0.3948,-0.3945,-0.3946,-0.3945,-0.3946,-0.3944,-0.3943,-0.3948,-0.3949,-0.3953,-0.395,-0.394,-0.3956,-0.3956,-0.3953,-0.3932,-0.3928,-0.3926,-0.3944,-0.3944,-0.3944,-0.3932,0,-0.3927,-0.3921,-0.3927,-0.3921,-0.3919,-0.3928,-0.3925,-0.3928,-0.3931,-0.393,-0.3934,-0.3933,-0.394,-0.394,-0.3938,-0.3942,-0.3936,-0.3943,-0.3942,-0.3942,-0.3941,-0.3924,-0.3919,-0.3908,-0.393,-0.393,-0.393,0,-0.391,-0.3911,-0.3904,-0.3909,-0.3909,-0.3906,-0.3907,-0.3907,-0.3909,-0.3912,-0.3913,-0.3919,-0.3917,-0.3924,-0.3921,-0.3925,-0.3926,-0.3928,-0.3927,-0.3927,-0.3935,-0.3923,-0.3904,-0.3903,-0.3928,-0.3928,-0.3928,0,-0.3894,-0.3894,-0.389,-0.3891,-0.3896,-0.3894,-0.3896,-0.39,-0.39,-0.3901,-0.3901,-0.3902,-0.3903,-0.3903,-0.3909,-0.3914,-0.3906,-0.3914,-0.3908,-0.3908,-0.3906,-0.3906,-0.3886,-0.3906,-0.3906,-0.3906,-0.3906,0,-0.3878,-0.3874,-0.3883,-0.3881,-0.3876,-0.3883,-0.3879,-0.3882,-0.3885,-0.3884,-0.3891,-0.389,-0.3898,-0.3897,-0.3902,-0.3899,-0.3899,-0.3901,-0.3903,-0.3901,-0.39,-0.3901,-0.3901,-0.3906,-0.3906,-0.3906,-0.3906,0,-0.386,-0.3865,-0.3862,-0.3867,-0.3869,-0.3865,-0.387,-0.3868,-0.3873,-0.3871,-0.3871,-0.3877,-0.3877,-0.3883,-0.3884,-0.3888,-0.3883,-0.3885,-0.3882,-0.3882,-0.3877,-0.3877,-0.3857,-0.3855,-0.3876,-0.3875,-0.3875,0,-0.3849,-0.3846,-0.3851,-0.3851,-0.3853,-0.3852,-0.3853,-0.386,-0.386,-0.3863,-0.3861,-0.3862,-0.3862,-0.3862,-0.3867,-0.3868,-0.3871,-0.3864,-0.3871,-0.3869,-0.3871,-0.3871,-0.3871,-0.3862,-0.3862,-0.3862,-0.3861,0,-0.383,-0.3833,-0.3833,-0.3834,-0.3835,-0.3836,-0.3838,-0.3837,-0.3845,-0.3845,-0.3845,-0.3846,-0.3847,-0.3848,-0.385,-0.3852,-0.3858,-0.3859,-0.3858,-0.3856,-0.3854,-0.3855,-0.3877,-0.3859,-0.386,-0.386,-0.386,-0.386,-0.3815,-0.3813,-0.3816,-0.3816,-0.3819,-0.382,-0.3819,-0.3823,-0.3824,-0.3825,-0.383,-0.3829,-0.3833,-0.3836,-0.3838,-0.3838,-0.3842,-0.384,-0.3839,-0.3839,-0.3838,-0.3854,-0.3838,-0.3839,-0.3839,-0.3839,-0.3839,0,-0.3796,-0.3799,-0.3799,-0.3802,-0.3802,-0.3808,-0.381,-0.381,-0.3809,-0.3812,-0.3813,-0.3813,-0.3814,-0.3819,-0.3821,-0.382,-0.3823,-0.382,-0.382,-0.3821,-0.3834,-0.3835,-0.3818,-0.3818,-0.3818,-0.3818,-0.3818,-0.3818,-0.3786,-0.3783,-0.3787,-0.3785,-0.3788,-0.3788,-0.3789,-0.379,-0.3793,-0.3793,-0.3793,-0.3797,-0.3801,-0.3803,-0.3804,-0.3806,-0.3806,-0.3802,-0.3805,-0.3817,-0.382,-0.3821,-0.3822,-0.3802,-0.3802,-0.3791,-0.3791,-0.3791]},{"header":{"parameterUnit":"m.s-1","parameterCategory":1,"la1":30.2991,"la2":30.254,"lo1":-89.0895,"lo2":-89.0444,"dy":0.0017,"dx":0.0017,"nx":28,"ny":28,"refTime":"2024-02-25T09:00:00:Z","depth":0,"parameterNumber":3,"parameterNumberName":"V-component_of_WINDS"},"data":[0,0,0,0,0,0,0,0,0,0,0,0,0,0,0,0,0,0,0,0,0,0,0,0,0,0,0,0,0,0,0,0,0,0,0,0,0,0,0,0,0,0,0,0,0,0,0,0,0,0,0,0,0,0,0,0,0,0,2.7781,2.7782,0,2.7894,2.7895,2.7897,2.7906,2.7905,2.7904,2.7903,2.8014,2.8018,2.8022,0,0,0,0,0,0,0,0,0,0,0,0,0,2.7569,2.7573,2.7781,2.7783,2.7784,2.7894,2.7895,2.7897,2.7907,2.7905,2.7904,2.7902,2.8013,2.8018,2.8022,0,0,0,0,0,0,0,0,0,0,0,0,0,2.767,2.7574,2.7781,2.7802,2.7805,2.7894,2.7895,2.7897,2.7907,2.7905,2.7903,2.7902,2.8011,2.8017,2.8023,2.8097,0,0,2.8042,2.8044,0,0,0,0,0,0,0,0,2.7664,2.7677,2.7798,2.7801,2.7804,2.7884,2.7862,2.7964,2.7907,2.7868,2.7903,2.7901,2.7972,2.7981,2.8006,2.8102,2.8107,2.8042,2.8046,2.8049,2.805,0,0,0,0,0,0,0,2.7657,2.7672,2.7826,2.7799,2.7803,2.7804,2.7817,2.7881,2.7929,2.7871,2.7872,2.7886,2.7974,2.8,2.8009,2.8108,2.8042,2.8048,2.8051,2.8054,2.827,2.8272,0,0,0,0,0,0,2.7647,2.7667,2.7822,2.7829,2.7728,2.781,2.7823,2.786,2.7928,2.7937,2.7887,2.7886,2.7991,2.8002,2.8013,2.8104,2.8049,2.8054,2.8058,2.8268,2.827,2.8273,0,0,0,0,0,0,2.7642,2.766,2.7817,2.7748,2.7768,2.7815,2.7857,2.7864,2.7891,2.794,2.7948,2.7906,2.799,2.8004,2.8076,2.8108,2.8057,2.8063,2.8265,2.8269,2.8272,2.8287,0,0,0,0,0,0,2.7636,2.7659,2.7688,2.7749,2.7772,2.788,2.7859,2.7867,2.7902,2.7901,2.796,2.7968,2.7989,2.8067,2.8082,2.8116,2.8067,2.8263,2.8267,2.8271,2.8284,2.829,2.8296,0,0,0,0,0,2.7628,2.7687,2.769,2.7708,2.781,2.7882,2.7895,2.792,2.7904,2.7934,2.7965,2.7966,2.8102,2.8074,2.8092,2.8127,2.8261,2.8266,2.827,2.8281,2.8289,2.8295,0,0,0,0,0,0,2.7627,2.7695,2.7699,2.778,2.7825,2.7884,2.7922,2.7927,2.7978,2.7975,2.8002,2.8015,2.8086,2.8113,2.8082,2.8202,2.818,2.8188,2.8182,2.819,2.8195,2.8188,2.8072,0,0,0,0,0,2.7637,2.7691,2.7747,2.7812,2.7835,2.7875,2.7907,2.7922,2.797,2.7989,2.8026,2.8071,2.8124,2.8158,2.8209,2.8287,2.83,2.832,2.8326,2.8331,2.8338,2.8381,2.8391,2.8288,2.8288,2.8288,0,0,2.7656,2.77,2.7733,2.7813,2.7851,2.7905,2.7891,2.7949,2.7989,2.7997,2.8068,2.8096,2.8148,2.8224,2.8259,2.8249,2.8369,2.8337,2.834,2.8345,2.8387,2.8397,2.8405,2.8291,2.8291,2.829,0,0,2.772,2.7759,2.7818,2.7856,2.7913,2.7939,2.7953,2.8011,2.8031,2.8102,2.811,2.8157,2.8247,2.8284,2.8315,2.8392,2.8395,2.8408,2.8439,2.8481,2.8489,2.8497,2.8525,2.8535,2.8414,2.8415,2.8415,0,2.7737,2.7821,2.7847,2.7906,2.7941,2.7952,2.8011,2.8046,2.8116,2.814,2.8128,2.8242,2.8277,2.8362,2.8381,2.8405,2.8421,2.8402,2.8486,2.8494,2.8501,2.8528,2.8539,2.8416,2.8416,2.8416,2.8415,0,2.7839,2.7897,2.7938,2.8007,2.8047,2.8105,2.8139,2.8175,2.8187,2.8213,2.8286,2.8329,2.8389,2.841,2.8421,2.8496,2.8488,2.8481,2.8459,2.8512,2.8538,2.8548,2.8418,2.8417,2.8417,2.8417,0,0,2.7907,2.799,2.8005,2.8037,2.81,2.8145,2.8203,2.8263,2.8294,2.8342,2.8391,2.8467,2.8461,2.8496,2.8511,2.8547,2.8607,2.8536,2.8537,2.8548,2.8692,2.8698,2.871,2.8608,2.861,2.8612,2.8688,0,2.7979,2.8086,2.811,2.8201,2.8255,2.8265,2.8316,2.836,2.8386,2.8434,2.8461,2.8516,2.8503,2.8524,2.8561,2.8592,2.8636,2.8586,2.8654,2.8656,2.8642,2.8724,2.873,2.88,2.8698,2.87,2.8701,0,2.8077,2.8129,2.8226,2.8282,2.8306,2.8351,2.8409,2.8455,2.8504,2.852,2.8559,2.857,2.863,2.8604,2.8687,2.8653,2.8681,2.87,2.8704,2.8712,2.8683,2.8735,2.8823,2.8834,2.8718,2.8716,2.8715,0,2.8118,2.8211,2.8282,2.8308,2.8376,2.8408,2.8437,2.8484,2.8519,2.8569,2.8591,2.8646,2.8677,2.8718,2.8744,2.8723,2.8824,2.8801,2.8839,2.8839,2.8861,2.886,2.8956,2.8878,2.8878,2.8877,2.8877,0,2.8197,2.8256,2.8301,2.8344,2.841,2.8437,2.8501,2.853,2.8572,2.862,2.8632,2.8676,2.8706,2.8755,2.8775,2.884,2.8853,2.8868,2.8872,2.8868,2.8866,2.8888,2.8884,2.888,2.888,2.8879,2.8879,0,2.8254,2.8287,2.8364,2.8422,2.8438,2.8484,2.8533,2.8574,2.86,2.8661,2.8677,2.8717,2.8774,2.8804,2.8875,2.8888,2.8962,2.8963,2.8946,2.8949,2.8986,2.8982,2.9101,2.9118,2.9027,2.9028,2.9028,0,2.8303,2.8349,2.8412,2.8446,2.8476,2.853,2.8566,2.8594,2.863,2.869,2.8724,2.8782,2.8831,2.8922,2.8957,2.9011,2.9014,2.9052,2.9022,2.9016,2.9016,2.9013,2.9018,2.9057,2.9058,2.9059,2.9059,0,2.8386,2.84,2.8452,2.851,2.8553,2.86,2.8646,2.8672,2.8707,2.8747,2.8807,2.8845,2.8918,2.8976,2.9033,2.9061,2.9066,2.9068,2.908,2.9076,2.9065,2.9073,2.8962,2.9066,2.9065,2.9065,2.9064,2.9064,2.8441,2.8483,2.8534,2.8592,2.8629,2.8672,2.8714,2.8746,2.8797,2.886,2.8872,2.8935,2.8982,2.906,2.909,2.9139,2.9131,2.9148,2.9152,2.9156,2.9159,2.9056,2.9149,2.9149,2.9149,2.9148,2.9148,0,2.8526,2.8559,2.8612,2.8677,2.8722,2.8724,2.8774,2.8812,2.8868,2.8912,2.896,2.9028,2.9084,2.9123,2.9179,2.9211,2.9215,2.9225,2.9224,2.923,2.9162,2.9147,2.9221,2.9221,2.9221,2.9221,2.9221,2.9221,2.8575,2.8646,2.8666,2.8754,2.8787,2.8851,2.8879,2.8918,2.8954,2.903,2.9078,2.9103,2.9145,2.9205,2.9256,2.9265,2.9286,2.9297,2.9306,2.9243,2.9235,2.9228,2.9213,2.93,2.9301,2.9371,2.9371,2.9372]}]]